Tracking 18942 objects as of 18-Jan-2018
HD Live streaming from Space Station
objects crossing your sky now

BREEZE-M DEB

Track BREEZE-M DEB now!


NORAD ID: 41548
Int'l Code: 2015-075J
Perigee: 33,675.3 km
Apogee: 36,850.6 km
Inclination: 2.0 °
Period: 1,409.1 minutes
Semi major axis: 41633 km
RCS: Unknown
Launch date: December 13, 2015
Source: Commonwealth of Independent States (former USSR) (CIS)
Launch site: TYURATAM MISSILE AND SPACE COMPLEX (TTMTR)

Note: This is SATELLITE DEBRIS
aabbcc
Your satellite tracking list
Your tracking list is empty




NASA's NSSDC Master Catalog

Two Line Element Set (TLE):
1 41548U 15075J   18017.18560904 -.00000256  00000-0  00000+0 0  9993
2 41548   1.9902  72.5652 0381333  57.3305 306.0668  1.02195510  7433
Source of the keplerian elements: AFSPC